Hourly Data Report for July 27, 2021

VICTORIA INTL A
BRITISH COLUMBIA
Current Station Operator: NAVCAN

48°38'50.000" N
123°25'33.000" W
19.50 m
1018621
71799
YYJ

Download Data

Hourly Data (July 2021)
Hourly Data Report for July 27, 2021
TIME
LST
Temp Definition
°C
Dew Point Definition
°C
Rel Hum Definition
%
Precip. Amount Definition
mm

Wind Dir Definition
10's deg

Wind Spd Definition
km/h
Visibility Definition
km
Stn Press Definition
kPa
Hmdx Definition


Wind Chill Definition


Weather Definition


00:00 17.4 12.2 71   28 5 24.1 101.23     LegendNANA
01:00 18.3 12.8 70   31 7 32.2 101.28     Clear
02:00 14.7 12.7 88   9 8 32.2 101.32     LegendNANA
03:00 14.0 12.8 92   7 3 32.2 101.34     LegendNANA
04:00 13.2 13.0 99   36 1 48.3 101.37     Clear
05:00 13.5 13.3 99   36 2 48.3 101.41     LegendNANA
06:00 15.3 12.7 84   8 3 48.3 101.46     LegendNANA
07:00 17.4 12.6 73   0 1 48.3 101.50     Clear
08:00 17.3 12.2 72   13 8 48.3 101.54     LegendNANA
09:00 20.5 12.9 61   9 8 48.3 101.54     LegendNANA
10:00 20.8 12.6 59   13 12 48.3 101.55     Mainly Clear
11:00 21.3 12.5 57   12 13 48.3 101.56     LegendNANA
12:00 21.7 12.7 56   11 14 48.3 101.55     LegendNANA
13:00 22.3 12.6 54   12 18 48.3 101.54 25   Clear
14:00 21.4 12.4 56   13 22 48.3 101.53     LegendNANA
15:00 21.9 12.0 53   13 19 48.3 101.49     LegendNANA
16:00 21.7 11.1 51   12 14 48.3 101.48     Mainly Clear
17:00 21.9 10.0 47   12 14 48.3 101.46     LegendNANA
18:00 18.8 10.5 58   8 13 48.3 101.44     LegendNANA
19:00 16.6 10.4 67   9 10 48.3 101.43     Clear
20:00 15.2 10.2 72   36 2 48.3 101.47     LegendNANA
21:00 15.6 10.4 71   9 6 32.2 101.53     LegendNANA
22:00 14.9 10.3 74   7 4 32.2 101.56     Clear
23:00 14.3 9.8 74   13 4 32.2 101.59     LegendNANA

Notes on Data Quality.

Legend

  • E = Estimated
  • M = Missing
  • NA = Not Available*
  • [empty] = Indicates an unobserved value
Date modified: